sat.trackr.live / text

‹ back to catalog

STARLINK-32591

NORAD 61718 · 2024-196M

PAYLOAD ACTIVE UNKNOWN

§ Identity

Operator
Country
US
Launch date
2024-10-30
Launch site
AFETR
Launch vehicle
Mass (kg)
RCS (m²)

Purposes: comms

External: N2YO · Heavens-Above · Gunter

§ Orbital elements

Epoch: 2026-09-21T08:28:36.879168Z

Period
93.85 min
Inclination
53.1582°
Eccentricity
0.0001357
Mean motion
15.34383111 rev/d
Perigee alt
461.8 km
Apogee alt
463.7 km
Semi-major
6,840.9 km
B*
4.6263e-5
RAAN
255.4255°
Arg perigee
92.3732°
Mean anomaly
267.7426°
Rev number
10,735

§ Raw data

STARLINK-325911 61718U 24196M   26264.35320462  .00001186  00000+0  46263-4 0  99902 61718  53.1582 255.4255 0001357  92.3732 267.7426 15.34383111107359

JSON: /api/v1/satellites/61718 · /tle

For live sub-satellite position, see the globe view (requires WebGL).

§ Visibility from observer

Set your observer location to see the next 7 days of passes ≥ 10°. The values pass through the URL so the page stays shareable.

No JS? Fill the form by hand. The geolocation button needs JavaScript.